Regional Weather Roundup
Issued by NWS Burlington, VT

Home | Current Version | Previous Version | Text Only | Print | Product List | Glossary On
Versions: 1 2 3 4 5 6 7 8 9 10 11 12 13 14 15 16 17 18 19 20 21 22 23 24 25 26 27 28 29 30 31 32 33 34 35 36 37 38 39 40 41 42 43 44 45 46 47 48 49 50
000
ASUS41 KBTV 021230
RWRBTV
VERMONT REGIONAL WEATHER ROUNDUP
NATIONAL WEATHER SERVICE BURLINGTON VT
800 AM EDT WED SEP 02 2015

NOTE: "FAIR" INDICATES FEW OR NO CLOUDS BELOW 12,000 FEET WITH NO
SIGNIFICANT WEATHER AND/OR OBSTRUCTIONS TO VISIBILITY.

* THESE REPORTS ARE NOT UNDER NWS QUALITY CONTROL AND/OR DO NOT
  REPORT WEATHER SUCH AS PRECIPITATION AND FOG.

VTZ001>019-021300-
_____VERMONT_____


CITY           SKY/WX    TMP DP  RH WIND       PRES   REMARKS
BURLINGTON     MOSUNNY   64  59  83 CALM      30.01S
6HR MIN TEMP:  59; 6HR MAX TEMP:  64;

MONTPELIER     CLOUDY    58  57  97 CALM      30.07F FOG
6HR MIN TEMP:  54; 6HR MAX TEMP:  58;

MORRISVILLE    FOG       57  55  93 CALM      30.05S VSB 1/4
6HR MIN TEMP:  56; 6HR MAX TEMP:  59;

ST. JOHNSBURY*   N/A     57  55  93 MISG      30.02F
6HR MIN TEMP:  57; 6HR MAX TEMP:  60;

LYNDONVILLE*   FOG       56  56  97 CALM      30.06S VSB<1/4
6HR MIN TEMP:  52; 6HR MAX TEMP:  57;

MIDDLEBURY*    FAIR      65  65 100 CALM      30.02S
6HR MIN TEMP:  59; 6HR MAX TEMP:  69;

RUTLAND*       SUNNY     63  54  72 SE6       30.05F
6HR MIN TEMP:  57; 6HR MAX TEMP:  61;

SPRINGFIELD    FOG       58  57  97 CALM      30.04S VSB 1/4
6HR MIN TEMP:  56; 6HR MAX TEMP:  59;

HIGHGATE*      FAIR      67  62  82 SE3       29.99S
6HR MIN TEMP:  58; 6HR MAX TEMP:  65;

NEWPORT*       FAIR      60  58  95 SW6       30.02F
6HR MIN TEMP:  54; 6HR MAX TEMP:  60;

BENNINGTON     MOSUNNY   60  58  92 CALM      30.05S FOG
6HR MIN TEMP:  54; 6HR MAX TEMP:  60;

SUTTON*          N/A     61 N/A N/A MISG        N/A
MT. MANSFIELD*   N/A     61 N/A N/A NW14        N/A

_____LAKE CHAMPLAIN_____


CITY           SKY/WX    TMP DP  RH WIND       PRES   REMARKS
COLCHESTER RF*   N/A     68  66  94 S14         N/A
DIAMOND ISL*     N/A     66  64  94 SE6         N/A

$$

NYZ007-026>031-035-052-083-021300-
_____NORTHERN NEW YORK_____


CITY           SKY/WX    TMP DP  RH WIND       PRES   REMARKS
PLATTSBURGH    SUNNY     64  62  93 CALM      29.99S
6HR MIN TEMP:  58; 6HR MAX TEMP:  64;

SARANAC LAKE   CLOUDY    62  61  96 SW5       30.06S FOG
6HR MIN TEMP:  54; 6HR MAX TEMP:  62;

MASSENA        CLOUDY    68  66  93 SW8       30.01S FOG
6HR MIN TEMP:  65; 6HR MAX TEMP:  68;

OGDENSBURG*    FOG       68  68 100 CALM      30.01S VSB 1/2
POTSDAM*         N/A     70  70 100 W7        30.02R FOG
WATERTOWN      PTSUNNY   69  67  93 SW5       30.03R FOG
6HR MIN TEMP:  57; 6HR MAX TEMP:  68;

FT DRUM        SUNNY     64  62  93 SE6       30.02S
6HR MIN TEMP:  62; 6HR MAX TEMP:  65;

ALBANY         MOSUNNY   67  62  84 S3        30.03F
6HR MIN TEMP:  63; 6HR MAX TEMP:  69;

GLENS FALLS    FOG       64  62  93 S5        30.03S VSB 1/4
6HR MIN TEMP:  57; 6HR MAX TEMP:  64;


$$
NHZ002-005-011-021300-
_____NEW HAMPSHIRE_____


CITY           SKY/WX    TMP DP  RH WIND       PRES   REMARKS
LEBANON        FOG       61  60  97 N3        30.03S VSB 1/4
6HR MIN TEMP:  58; 6HR MAX TEMP:  62;

KEENE          CLOUDY    57  52  82 CALM      30.04S
6HR MIN TEMP:  54; 6HR MAX TEMP:  57;

MT WASHINGTON  MOSUNNY   63  32  31 W24         N/A
6HR MIN TEMP:  59; 6HR MAX TEMP:  62;

PLYMOUTH       FOG       58  57  97 CALM      30.01F VSB 3/4
6HR MIN TEMP:  53; 6HR MAX TEMP:  57;

WHITEFIELD     SUNNY     55  51  86 CALM      30.04S
6HR MIN TEMP:  48; 6HR MAX TEMP:  55;


$$

_____REGIONAL QUEBEC LOCATIONS_____


CITY           SKY/WX    TMP DP  RH WIND       PRES   REMARKS
MONTREAL       DRIZZLE   68  66  94 W10       29.98S FOG
QUEBEC CITY    FOG       66  66 100 SW13      29.93S VSB 1
SHERBROOKE     CLOUDY    61  59  94 CALM      30.00S

_____REGIONAL ONTARIO LOCATIONS_____


CITY           SKY/WX    TMP DP  RH WIND       PRES   REMARKS
OTTAWA         CLOUDY    66  64  94 SW3       30.00S FOG

______KEY______
VSB  - VISIBILITY IN MILES
WCI  - WIND CHILL INDEX
HX   - HEAT INDEX
$$
NNNN



USA.gov is the U.S. government's official web portal to all federal, state and local government web resources and services.